SCOUT B DEB, 2516

Orbit data source: Space-Track

SCOUT B DEB, 2516 is space debris in LEO originally from a launch on Fri, 10 Jun 1966 UTC launched from the Wallops Island (WLPIS). Debris objects in space refer to the collection of defunct objects orbiting the Earth. Examples of debris include non-operational satellites, rocket bodies, and fragments generated from explosions, collisions, or faulty payload assembly.

Loading next visibility...
Identifier
2516, 1966-052D
Orbit
LEO
Last TLE update
14 hours ago
Origin
Manufacturer
Unknown
Mission
Spacecraft
Bus & Motor
Unknown
Mass
Unknown
Launch date (UTC)
1966-06-10 (59 years ago)
Launch vehicle
Unknown
Launch site
Wallops Island (WLPIS)
Object type
Payload
Rocket body
Debris
Shape & HBR
Unknown
Radar Cross Section
Small (<0.1 m²)

Expand to show TLE details & history

TLE from 14 hours ago
0 SCOUT B DEB
1  2516U 66052D   25199.89204481  .00000355  00000-0  82508-3 0  9994
2  2516  41.0098 153.8417 2217111  48.4624 328.6126 10.00735381290704
Epoch: 2025-07-18T21:24Z
TLE epoch observation values (Epoch: 2025-07-18T21:24:32.671Z)
Latitude
-0.00006°
Longitude
-104.23149°
Altitude
1,160.553 km
Speed
7.871 km/s
True Right ascension
10h 15m 21s
True Declination
0° 00' 00"
Sunlit
Object was in daylight at epoch
Visualization orbit readout
Latitude
-18.6665°
Longitude
-128.40349°
Altitude
1,929.718 km
Speed
7.223 km/s
Apparent Right ascension
10h 04m 19s
Apparent Declination
-30° 44' 07"
Sunlit
Object is in daylight
Visualization observer readout
Local Sidereal Time
00:28:00
Azimuth
83.814° E
Elevation
-59.52°
Doppler factor
1
Orbital elements
Apogee altitude
4,736.947 km
Perigee altitude
702.708 km
Semi-major axis
9,097.964 km
Eccentricity
0.22171
Inclination
41.0098°
RAAN
153.8417°
Arg. of periapsis
48.4624°
True anomaly
311.60632°
Mean anomaly
328.6126°
Eccentric anomaly
320.53912°
Mean motion
2.50108 °/min
Orbital period
143.94 mins
BSTAR
0.00082508
Loading maneuver chart data...
Loading SW <> Apogee altitude chart data...
Loading historical data...
Loading historical data...
Loading historical data...
Loading historical data...
Loading historical data...
Loading historical data...
Loading historical data...
Other satellites on launch #52 in the year 1966 (1966-06-10 UTC)
|